Regional Weather Roundup
Issued by NWS Albany, NY

Home | Current Version | Previous Version | Text Only | Print | Product List | Glossary On
Versions: 1 2 3 4 5 6 7 8 9 10 11 12 13 14 15 16 17 18 19 20 21 22 23 24 25 26 27 28 29 30 31 32 33 34 35 36 37 38 39 40 41 42 43 44 45 46 47 48 49 50
000
ASUS41 KALY 302210
RWRALY

NEW YORK STATE HOURLY WEATHER ROUNDUP
NATIONAL WEATHER SERVICE ALBANY NY
600 PM EDT SUN AUG 30 2015

NOTE: "FAIR" INDICATES FEW OR NO CLOUDS BELOW 12,000 FEET WITH NO
SIGNIFICANT WEATHER AND/OR NO OBSTRUCTIONS TO VISIBILITY.

NYZ032-033-038>043-046>054-057>066-NYZ062>081-302300-
EAST


CITY           SKY/WX    TMP DP  RH WIND       PRES   REMARKS
ALBANY         MOSUNNY   82  62  50 CALM      30.00F
GLENS FALLS    MOSUNNY   78  61  55 SE6       30.00S
POUGHKEEPSIE   LGT RAIN  76  70  82 CALM      30.01S
NEWBURGH       PTSUNNY   79  70  73 N5        30.03F
MONTGOMERY     CLOUDY    80  69  69 N3        30.02S
WHITE PLAINS   PTSUNNY   81  68  64 S7        30.02S
ISLIP          PTSUNNY   78  67  68 S13       30.01F
NEW YORK CITY  PTSUNNY   83  67  58 S13       30.00F
CENTRAL PARK   PTSUNNY   84  66  54 VRB5      30.04S
$$

NYZ005>009-017-018-044>046-055-056-302300-
CENTRAL


CITY           SKY/WX    TMP DP  RH WIND       PRES   REMARKS
FULTON         MOSUNNY   79  65  62 NW3       30.02F
SYRACUSE       MOSUNNY   79  66  64 NE6       30.01S
ROME           SUNNY     78  62  57 W8        30.03S
ELMIRA         CLOUDY    79  65  62 SW12      30.03S
BINGHAMTON     MOSUNNY   78  62  57 MISG      30.06F
MONTICELLO     PTSUNNY   79  66  65 W7        30.08S
$$

NYZ026>034-041>043-302300-
NORTH


CITY           SKY/WX    TMP DP  RH WIND       PRES   REMARKS
WATERTOWN      MOSUNNY   75  60  59 W7        30.02S
FORT DRUM      NOT AVBL
MASSENA        CLOUDY    76  61  59 W8        30.00F
SARANAC LAKE   CLOUDY    72  57  59 CALM      30.04F
PLATTSBURGH    CLOUDY    76  65  68 CALM      29.98F
$$

NYZ001>004-010>016-019>021-302300-
WEST


CITY           SKY/WX    TMP DP  RH WIND       PRES   REMARKS
NIAGARA FALLS  MOSUNNY   78  64  61 SW10      30.02S
BUFFALO        MOSUNNY   77  61  57 SW12      30.04R
DUNKIRK        SUNNY     76  66  71 W6        30.05S
JAMESTOWN      PTSUNNY   73  64  73 CALM      30.09S
WELLSVILLE     CLOUDY    75  64  68 SW5       30.11S
ROCHESTER      MOSUNNY   80  64  58 CALM      30.03S
PENN YAN       CLOUDY    78  66  66 CALM      30.04S
$$

             KEY
       WCI = WIND CHILL INDEX
       VSB = VISIBILITY
       HX  = HEAT INDEX
$$


USA.gov is the U.S. government's official web portal to all federal, state and local government web resources and services.